Regional Weather Roundup
Issued by NWS

Home | Current Version | Previous Version | Graphics & Text | Print | Product List | Glossary On
Versions: 1 2 3 4 5 6 7 8 9 10 11 12 13 14 15 16 17 18 19 20 21 22 23 24 25 26 27 28 29 30 31 32 33 34 35 36 37 38 39 40 41 42 43 44 45 46 47 48 49 50
000
ASUS45 KSLC 280210
RWRUT

UTAH REGIONAL WEATHER ROUNDUP
NATIONAL WEATHER SERVICE SALT LAKE CITY UT
700 PM MST TUE JAN 27 2015

UTZ001>011-023>025-280300-

NORTHERN UTAH

CITY           SKY/WX    TMP DP  RH WIND       PRES   REMARKS
BRIGHAM CITY   CLOUDY    40  36  84 CALM      30.14F
HILL AFB       CLOUDY    46  29  52 E5        30.14F
LOGAN          MOCLDY    39  34  82 CALM      30.15S
OGDEN          CLOUDY    44  37  76 S3        30.14S
PROVO AIRPORT  PTCLDY    45  36  70 CALM      30.18R
SALT LAKE CITY MOCLDY    42  37  82 NE7       30.14R
VERNAL         CLOUDY    37  26  64 CALM      30.22S
WENDOVER       PTCLDY    39  32  75 W3        30.14R
HEBER CITY     CLOUDY    39  32  75 N3        30.18R
WEST JORDAN    CLEAR     46  37  71 S13       30.15R

$$

UTZ012>022-026-027-280300-

SOUTHERN/CENTRAL UTAH

CITY           SKY/WX    TMP DP  RH WIND       PRES   REMARKS
BLANDING       MOCLDY    41  32  70 NW7       30.34R
BRYCE CANYON   LGT RAIN  35  34  96 SE5       30.29S WCI  31
CEDAR CITY     CLEAR     44  36  73 S13       30.22S
DELTA          CLEAR     47  35  62 S15       30.18R
MILFORD        CLEAR     43  33  68 S12       30.21R
MOAB/CYNLANDS  CLOUDY    42  34  73 CALM      30.23R
PRICE          CLOUDY    41  27  57 CALM      30.24R
ST GEORGE      CLEAR     54  45  71 S5        30.23S
KANAB          CLEAR     39  39 100 NE3       30.28S

$$

REGIONAL REPORTS     COLORADO/ARIZONA

CITY           SKY/WX    TMP DP  RH WIND       PRES   REMARKS
CRAIG, CO      CLOUDY    35  30  82 W5        30.23R WCI  31
GRAND JUNCTION MOCLDY    40  28  62 N6        30.24S
RIFLE          PTCLDY    40  27  59 E5        30.23S
MONTROSE       PTCLDY    37  24  59 SE8       30.27S WCI  31
CORTEZ         CLEAR     35  28  75 E5        30.28R WCI  31
PAGE, AZ       NOT AVBL
GRAND CANYON   MOCLDY    38  34  85 CALM      30.29S
KINGMAN        MOCLDY    53  46  77 S9        30.22R
FLAGSTAFF      PTCLDY    37  30  75 CALM      30.31R

$$

REGIONAL REPORTS    NEVADA/IDAHO/WYOMING

CITY           SKY/WX    TMP DP  RH WIND       PRES   REMARKS
LAS VEGAS, NV  PTCLDY    59  48  67 CALM      30.16R
ELY            PTCLDY    36  32  85 S12       30.20R WCI  28
ELKO           CLOUDY    41  38  89 SW7       30.13R
POCATELLO, ID  CLOUDY    45  37  73 S12       30.12S
BURLEY         LGT RAIN  46  37  71 S9        30.09R
EVANSTON, WY   MOCLDY    37  31  78 SW9       30.18S WCI  30
ROCK SPRINGS   MOCLDY    37  25  61 S7        30.16S WCI  32
KEMMERER       PTCLDY    34  30  86 CALM      30.18S

$$



USA.gov is the U.S. government's official web portal to all federal, state and local government web resources and services.